DW8923 Weather Reports


time (UTC)temp
C
wind
direction
speed
KPH
gust
KPH
rain 1hr
cm
rain 24hr
cm
rain mn
cm
humidity
%
barometer
mb
20260506044500 23 165 3.2 16.1 0.00 0.00 0.00 89 1006.3
20260506043101 24 135 4.8 11.3 0.00 0.00 0.00 88 1006.4
20260506041605 24 121 6.4 12.9 0.00 0.00 0.00 88 1006.3
20260506040058 24 173 1.6 12.9 0.00 0.00 0.00 87 1006.1
20260506034614 24 126 1.6 6.4 0.00 0.00 0.00 86 1006.0
20260506033057 25 106 3.2 8.0 0.00 0.00 0.00 85 1005.8
20260506031606 25 145 3.2 9.7 0.00 0.00 0.00 84 1005.7
20260506030056 25 144 0.0 8.0 0.00 0.00 0.00 83 1005.4
20260506024613 25 153 0.0 8.0 0.00 0.00 0.00 83 1005.2
20260506023055 25 123 0.0 6.4 0.00 0.00 0.00 82 1005.0
20260506021554 25 166 0.0 6.4 0.00 0.00 0.00 81 1004.6
20260506020053 26 133 0.0 6.4 0.00 0.00 0.00 80 1004.5
20260506014553 26 128 0.0 6.4 0.00 0.00 0.00 79 1004.4
20260506013104 26 159 0.0 9.7 0.00 0.00 0.00 77 1004.3
20260506011604 26 139 0.0 11.3 0.00 0.00 0.00 75 1004.1
20260506010055 27 152 1.6 11.3 0.00 0.00 0.00 74 1004.0
20260506004549 27 136 3.2 8.0 0.00 0.00 0.00 73 1004.0
20260506003049 27 143 4.8 14.5 0.00 0.00 0.00 73 1004.1
20260506001548 27 136 1.6 8.0 0.00 0.00 0.00 72 1004.1
20260506000050 28 136 1.6 11.3 0.00 0.00 0.00 71 1004.1
20260505234547 28 177 3.2 9.7 0.00 0.00 0.00 70 1004.1
20260505233045 28 122 8.0 16.1 0.00 0.00 0.00 69 1004.0
20260505231544 28 120 6.4 14.5 0.00 0.00 0.00 69 1003.7
20260505230055 28 183 11.3 22.5 0.00 0.00 0.00 68 1003.7
20260505224546 28 175 9.7 17.7 0.00 0.00 0.00 68 1003.5
20260505223054 28 142 9.7 19.3 0.00 0.00 0.00 68 1003.7
20260505221541 28 123 9.7 19.3 0.00 0.00 0.00 68 1003.5
20260505220042 29 219 9.7 20.9 0.00 0.00 0.00 66 1003.6
20260505214537 29 202 9.7 16.1 0.00 0.00 0.00 67 1003.7
20260505213050 29 123 11.3 19.3 0.00 0.00 0.00 66 1003.8
20260505211533 29 173 8.0 16.1 0.00 0.00 0.00 67 1004.0
20260505210032 29 142 6.4 19.3 0.00 0.00 0.00 67 1004.4
20260505204530 30 165 11.3 19.3 0.00 0.00 0.00 66 1004.5
20260505203041 30 143 8.0 12.9 0.00 0.00 0.00 66 1004.5
20260505201525 29 263 8.0 24.1 0.00 0.00 0.00 64 1004.9
20260505200032 29 161 8.0 25.7 0.00 0.00 0.00 66 1005.0
20260505194519 28 151 8.0 24.1 0.00 0.00 0.00 67 1005.1
20260505193018 28 146 9.7 22.5 0.00 0.00 0.00 68 1005.2
20260505191515 28 161 9.7 16.1 0.00 0.00 0.00 67 1005.4
20260505190012 28 161 4.8 17.7 0.00 0.00 0.00 69 1005.6
20260505184517 27 180 6.4 16.1 0.00 0.00 0.00 70 1005.7
20260505183007 27 171 3.2 16.1 0.00 0.00 0.00 72 1006.1
20260505181503 26 199 4.8 14.5 0.00 0.00 0.00 75 1006.4
20260505180104 26 175 9.7 17.7 0.00 0.00 0.00 75 1006.4
20260505174559 25 126 4.8 14.5 0.00 0.00 0.00 77 1006.9
20260505173054 25 227 4.8 22.5 0.00 0.00 0.00 78 1006.9
20260505171550 24 155 4.8 14.5 0.00 0.00 0.00 81 1006.9
20260505170046 23 186 4.8 16.1 0.00 0.00 0.00 82 1007.0
20260505164556 23 192 4.8 19.3 0.00 0.00 0.00 83 1007.0
20260505163045 23 185 3.2 17.7 0.00 0.00 0.00 84 1007.1
20260505161540 23 231 3.2 9.7 0.00 0.00 0.00 85 1007.1
20260505153037 22 173 4.8 11.3 0.00 0.00 0.00 87 1006.9
20260505151524 22 122 4.8 11.3 0.00 0.00 0.00 88 1007.1
20260505124513 21 211 1.6 11.3 0.00 0.00 0.00 90 1005.9
20260505123012 21 146 6.4 17.7 0.00 0.00 0.00 90 1005.6
20260505121511 21 258 3.2 9.7 0.00 0.00 0.00 90 1005.4
20260505120010 21 165 3.2 11.3 0.00 0.00 0.00 89 1005.2
20260505114515 21 171 6.4 14.5 0.00 0.00 0.00 89 1005.0
20260505113008 21 150 3.2 12.9 0.00 0.00 0.00 89 1005.1
20260505111507 21 128 3.2 16.1 0.00 0.00 0.00 89 1005.0
20260505101604 21 176 3.2 16.1 0.00 0.00 0.00 89 1005.2
20260505100059 21 171 4.8 12.9 0.00 0.00 0.00 89 1005.5
20260505094606 21 165 3.2 14.5 0.00 0.00 0.00 88 1005.6
20260505093057 21 173 6.4 14.5 0.00 0.00 0.00 88 1005.7
20260505091600 21 142 6.4 12.9 0.00 0.00 0.00 88 1005.8
20260505090100 21 188 3.2 17.7 0.00 0.00 0.00 87 1005.9
20260505084553 21 126 3.2 12.9 0.00 0.00 0.00 87 1005.9
20260505083054 21 158 3.2 16.1 0.00 0.00 0.00 87 1005.8
20260505081558 21 179 4.8 12.9 0.00 0.00 0.00 87 1006.2
20260505080049 21 210 4.8 17.7 0.00 0.00 0.00 87 1006.3
20260505074604 21 134 6.4 19.3 0.00 0.00 0.00 87 1006.3
20260505073044 21 193 8.0 19.3 0.00 0.00 0.00 87 1006.4
20260505071542 21 114 4.8 19.3 0.00 0.00 0.00 86 1006.6
20260505070038 21 161 4.8 19.3 0.00 0.00 0.00 86 1006.9
20260505064537 21 128 6.4 22.5 0.00 0.00 0.00 86 1007.1
20260505063040 21 180 6.4 19.3 0.00 0.00 0.00 85 1007.0
20260505061540 21 184 6.4 25.7 0.00 0.00 0.00 85 1007.2
20260505060031 21 183 6.4 19.3 0.00 0.00 0.00 85 1007.3